Location: *
(46.1866°S, 178.5290°W)
Time: 10:43:27
(UTC+00:00)

Cosmos 1242 Rocket - Pass Details

Date: 19 May 2021
Orbit: 445 x 484 km, 81.2° (Epoch: 14 June)

Event Time Altitude Azimuth Distance (km) Brightness Sun altitude
Rises 06:30:45 0° 199° (SSW) 2,600 6.4 -21.0°
Reaches altitude 10° 06:32:59 10° 207° (SSW) 1,709 5.6 -21.4°
Maximum altitude 06:36:26 35° 274° (W) 810 4.2 -22.0°
Drops below altitude 10° 06:39:50 10° 341° (NNW) 1,678 5.6 -22.6°
Sets 06:42:01 0° 350° (N) 2,545 6.4 -22.9°
